N8IR-19 Weather Reports


Display with metric or nautical units.
time (UTC)temp
F
wind
direction
speed
MPH
gust
MPH
rain 1hr
in
rain 24hr
in
rain mn
in
humidity
%
barometer
mb
20260831220157 85 248 3.0 4.0 0.00 0.00 0.00 50 997.6
20260831215620 86 0.0 1.0 0.00 0.00 0.00 50 997.5
20260831215120 86 248 1.0 2.0 0.00 0.00 0.00 48 997.4
20260831214619 86 248 1.0 2.0 0.00 0.00 0.00 47 997.3
20260831214119 87 248 1.0 2.0 0.00 0.00 0.00 47 997.2
20260831213617 87 248 3.0 8.0 0.00 0.00 0.00 47 997.1
20260831213120 87 225 2.0 3.0 0.00 0.00 0.00 47 997.0
20260831212620 87 225 2.0 3.0 0.00 0.00 0.00 48 997.0
20260831212117 87 248 3.0 5.0 0.00 0.00 0.00 48 997.0
20260831211620 87 248 4.0 4.0 0.00 0.00 0.00 49 996.9
20260831211120 86 248 2.0 4.0 0.00 0.00 0.00 49 997.0
20260831210619 86 225 2.0 3.0 0.00 0.00 0.00 49 997.1
20260831210119 86 225 4.0 5.0 0.00 0.00 0.00 49 997.0
20260831205619 86 225 1.0 2.0 0.00 0.00 0.00 49 997.2
20260831205138 86 0.0 0.0 0.00 0.00 0.00 49 997.2
20260831204617 86 225 2.0 3.0 0.00 0.00 0.00 49 997.2
20260831204119 85 225 5.0 6.0 0.00 0.00 0.00 50 997.2
20260831203620 85 225 3.0 4.0 0.00 0.00 0.00 51 997.2
20260831203116 85 225 1.0 2.0 0.00 0.00 0.00 51 997.2
20260831202618 85 203 1.0 2.0 0.00 0.00 0.00 51 997.3
20260831202117 85 203 1.0 3.0 0.00 0.00 0.00 51 997.2
20260831201617 85 0.0 1.0 0.00 0.00 0.00 51 997.2
20260831201117 85 203 3.0 4.0 0.00 0.00 0.00 52 997.1
20260831200617 84 225 1.0 2.0 0.00 0.00 0.00 52 997.0
20260831200116 84 0.0 1.0 0.00 0.00 0.00 52 997.0
20260831195617 84 225 1.0 2.0 0.00 0.00 0.00 52 996.9
20260831195117 84 225 2.0 3.0 0.00 0.00 0.00 52 997.1
20260831194617 84 225 2.0 2.0 0.00 0.00 0.00 52 997.2
20260831194117 83 0.0 0.0 0.00 0.00 0.00 52 997.5
20260831193616 83 0.0 1.0 0.00 0.00 0.00 52 997.4
20260831193117 83 225 2.0 3.0 0.00 0.00 0.00 52 997.0
20260831192617 83 225 2.0 3.0 0.00 0.00 0.00 52 997.0
20260831192117 83 225 3.0 4.0 0.00 0.00 0.00 52 997.2
20260831191617 83 225 3.0 4.0 0.00 0.00 0.00 51 997.1
20260831191116 84 225 4.0 4.0 0.00 0.00 0.00 51 997.2
20260831190616 84 225 4.0 5.0 0.00 0.00 0.00 50 997.0
20260831190117 84 0 5.0 6.0 0.00 0.00 0.00 50 997.0
20260831185617 84 0 7.0 8.0 0.00 0.00 0.00 49 997.0
20260831185117 85 0 6.0 8.0 0.00 0.00 0.00 48 997.2
20260831184636 85 0 3.0 4.0 0.00 0.00 0.00 47 997.4
20260831184137 85 0 5.0 6.0 0.00 0.00 0.00 47 997.5
20260831183616 85 0 2.0 4.0 0.00 0.00 0.00 48 997.7
20260831183136 85 0.0 0.0 0.00 0.00 0.00 48 997.8
20260831182617 85 0.0 0.0 0.00 0.00 0.00 47 997.9
20260831182116 85 0.0 0.0 0.00 0.00 0.00 46 997.9
20260831181616 85 0.0 0.0 0.00 0.00 0.00 46 998.0
20260831181117 85 0.0 0.0 0.00 0.00 0.00 46 998.0
20260831180616 85 0.0 0.0 0.00 0.00 0.00 47 998.1
20260831180116 85 0.0 0.0 0.00 0.00 0.00 47 998.2
20260831175617 85 0.0 0.0 0.00 0.00 0.00 47 998.2
20260831175116 85 0.0 0.0 0.00 0.00 0.00 46 998.2
20260831174617 85 248 2.0 3.0 0.00 0.00 0.00 46 998.3
20260831174137 85 248 2.0 3.0 0.00 0.00 0.00 46 998.4
20260831173617 85 248 2.0 3.0 0.00 0.00 0.00 47 998.5
20260831173116 85 248 1.0 1.0 0.00 0.00 0.00 47 998.5
20260831172616 86 248 2.0 2.0 0.00 0.00 0.00 47 998.6
20260831172117 86 248 2.0 2.0 0.00 0.00 0.00 46 998.5
20260831171616 86 0 2.0 3.0 0.00 0.00 0.00 47 998.5
20260831171119 86 0 2.0 3.0 0.00 0.00 0.00 46 998.6
20260831170619 86 248 2.0 3.0 0.00 0.00 0.00 47 998.6
20260831170119 86 0 2.0 2.0 0.00 0.00 0.00 47 998.6
20260831165618 86 248 2.0 4.0 0.00 0.00 0.00 47 998.5
20260831165139 86 0 3.0 3.0 0.00 0.00 0.00 46 998.5
20260831164618 86 0 2.0 4.0 0.00 0.00 0.00 46 998.4
20260831164121 86 0 3.0 4.0 0.00 0.00 0.00 46 998.4
20260831163620 86 0 3.0 5.0 0.00 0.00 0.00 45 998.3
20260831163118 86 0 4.0 5.0 0.00 0.00 0.00 47 998.4
20260831162641 86 0 3.0 5.0 0.00 0.00 0.00 47 998.4
20260831162142 86 248 3.0 4.0 0.00 0.00 0.00 46 998.3
20260831161641 86 0 4.0 6.0 0.00 0.00 0.00 46 998.4
20260831161122 86 248 3.0 5.0 0.00 0.00 0.00 48 998.4
20260831160620 86 225 3.0 4.0 0.00 0.00 0.00 47 998.4
20260831160118 86 248 3.0 5.0 0.00 0.00 0.00 48 998.4
20260831155618 85 248 3.0 4.0 0.00 0.00 0.00 48 998.3
20260831155139 85 248 7.0 10.0 0.00 0.00 0.00 48 998.2
20260831154621 84 248 3.0 4.0 0.00 0.00 0.00 48 998.3
20260831154121 83 248 5.0 5.0 0.00 0.00 0.00 49 998.3
20260831153621 83 0 7.0 10.0 0.00 0.00 0.00 49 998.3
20260831153121 83 0 9.0 11.0 0.00 0.00 0.00 48 998.3
20260831152618 83 225 7.0 10.0 0.00 0.00 0.00 48 998.3
20260831152118 82 0 8.0 11.0 0.00 0.00 0.00 48 998.3
20260831151621 82 0 8.0 10.0 0.00 0.00 0.00 48 998.3
20260831151120 82 0 9.0 12.0 0.00 0.00 0.00 49 998.3
20260831150641 81 0 6.0 8.0 0.00 0.00 0.00 49 998.4
20260831150121 81 0 6.0 8.0 0.00 0.00 0.00 48 998.6
20260831145620 81 248 7.0 10.0 0.00 0.00 0.00 48 998.5
20260831145121 80 0 7.0 9.0 0.00 0.00 0.00 48 998.5
20260831144618 80 248 3.0 4.0 0.00 0.00 0.00 47 998.5
20260831144138 80 0 8.0 12.0 0.00 0.00 0.00 47 998.5
20260831143620 79 0 7.0 10.0 0.00 0.00 0.00 46 998.4
20260831143120 79 0 6.0 9.0 0.00 0.00 0.00 46 998.3
20260831142620 78 0 8.0 11.0 0.00 0.00 0.00 46 998.3
20260831142118 78 0 7.0 10.0 0.00 0.00 0.00 46 998.3
20260831141619 77 0 4.0 9.0 0.00 0.00 0.00 46 998.2
20260831141118 77 180 2.0 5.0 0.00 0.00 0.00 46 998.1
20260831140638 76 0 4.0 5.0 0.00 0.00 0.00 46 998.2
20260831140118 76 0 3.0 5.0 0.00 0.00 0.00 47 998.2
20260831135639 76 0 5.0 9.0 0.00 0.00 0.00 47 998.3
20260831135118 76 0 4.0 7.0 0.00 0.00 0.00 47 998.3
20260831134618 76 0 4.0 6.0 0.00 0.00 0.00 47 998.2
20260831134121 76 0 4.0 5.0 0.00 0.00 0.00 47 998.2
20260831133718 76 0 4.0 9.0 0.00 0.00 0.00 47 998.1
20260831133118 76 0 3.0 5.0 0.00 0.00 0.00 47 998.1
20260831132618 76 0 3.0 5.0 0.00 0.00 0.00 47 998.1
20260831132118 75 0 3.0 5.0 0.00 0.00 0.00 48 998.1
20260831131618 75 180 2.0 4.0 0.00 0.00 0.00 48 998.2
20260831131138 75 225 3.0 4.0 0.00 0.00 0.00 48 998.1
20260831130639 75 0 4.0 6.0 0.00 0.00 0.00 48 998.2
20260831130118 75 203 4.0 5.0 0.00 0.00 0.00 48 998.2
20260831125618 75 0 1.0 4.0 0.00 0.00 0.00 48 998.2
20260831125121 75 203 2.0 4.0 0.00 0.00 0.00 48 998.1
20260831124618 75 0 2.0 3.0 0.00 0.00 0.00 48 998.1
20260831124118 75 180 2.0 4.0 0.00 0.00 0.00 48 998.1
20260831123659 75 0 2.0 4.0 0.00 0.00 0.00 48 998.1
20260831123118 75 0 3.0 4.0 0.00 0.00 0.00 49 998.1
20260831122618 75 0 3.0 6.0 0.00 0.00 0.00 49 998.1
20260831122118 75 0 3.0 5.0 0.00 0.00 0.00 49 998.0
20260831121618 74 0 2.0 4.0 0.00 0.00 0.00 49 998.1
20260831121118 74 0 3.0 4.0 0.00 0.00 0.00 49 998.1
20260831120638 74 0 4.0 6.0 0.00 0.00 0.00 49 998.2
20260831120118 74 0 3.0 4.0 0.00 0.00 0.00 50 998.1
20260831115619 74 0 5.0 8.0 0.00 0.00 0.00 50 998.2
20260831115117 74 0 5.0 8.0 0.00 0.00 0.00 50 998.2
20260831114618 74 0 6.0 9.0 0.00 0.00 0.00 50 998.3
20260831114118 74 0 6.0 9.0 0.00 0.00 0.00 50 998.3
20260831113641 74 0 4.0 8.0 0.00 0.00 0.00 49 998.3
20260831113121 74 0 6.0 8.0 0.00 0.00 0.00 49 998.2
20260831112620 74 0 3.0 4.0 0.00 0.00 0.00 49 998.1
20260831112118 74 203 1.0 3.0 0.00 0.00 0.00 49 998.1
20260831111619 74 0 3.0 4.0 0.00 0.00 0.00 49 998.1
20260831111120 74 180 2.0 4.0 0.00 0.00 0.00 49 997.9
20260831110618 74 0 2.0 4.0 0.00 0.00 0.00 49 998.0
20260831110118 74 0 4.0 6.0 0.00 0.00 0.00 49 998.0
20260831105617 74 203 1.0 2.0 0.00 0.00 0.00 49 997.7
20260831105118 74 0 4.0 5.0 0.00 0.00 0.00 49 997.8
20260831104620 74 0 4.0 6.0 0.00 0.00 0.00 48 997.7
20260831104117 74 203 1.0 2.0 0.00 0.00 0.00 48 997.7
20260831103621 74 158 1.0 2.0 0.00 0.00 0.00 48 997.5
20260831103137 74 180 2.0 4.0 0.00 0.00 0.00 48 997.4
20260831102641 74 225 2.0 3.0 0.00 0.00 0.00 48 997.5
20260831102121 74 0 4.0 6.0 0.00 0.00 0.00 48 997.5
20260831101619 74 0 4.0 7.0 0.00 0.00 0.00 48 997.4
20260831101121 74 0 5.0 9.0 0.00 0.00 0.00 48 997.4
20260831100618 74 0 5.0 8.0 0.00 0.00 0.00 48 997.2
20260831100120 74 0 2.0 3.0 0.00 0.00 0.00 48 997.1
20260831095638 74 0 2.0 4.0 0.00 0.00 0.00 48 997.2
20260831095119 74 0 4.0 8.0 0.00 0.00 0.00 48 997.2
20260831094619 74 0 4.0 7.0 0.00 0.00 0.00 48 997.2
20260831094120 74 0 6.0 8.0 0.00 0.00 0.00 48 997.1
20260831093620 74 0 5.0 9.0 0.00 0.00 0.00 48 997.2
20260831093121 74 0 7.0 10.0 0.00 0.00 0.00 48 997.3
20260831092620 74 0 6.0 9.0 0.00 0.00 0.00 48 997.3
20260831092120 74 0 8.0 10.0 0.00 0.00 0.00 48 997.3
20260831091617 74 0 8.0 10.0 0.00 0.00 0.00 48 997.5
20260831091119 74 0 6.0 9.0 0.00 0.00 0.00 48 997.4
20260831090617 74 0 5.0 8.0 0.00 0.00 0.00 48 997.4
20260831090117 74 0 5.0 8.0 0.00 0.00 0.00 48 997.4
20260831085617 74 0 6.0 9.0 0.00 0.00 0.00 48 997.4
20260831085120 74 0 5.0 8.0 0.00 0.00 0.00 48 997.4
20260831084620 74 0 6.0 8.0 0.00 0.00 0.00 48 997.4
20260831084117 74 0 5.0 8.0 0.00 0.00 0.00 48 997.4
20260831083620 74 0 4.0 6.0 0.00 0.00 0.00 48 997.5
20260831083138 74 0 5.0 8.0 0.00 0.00 0.00 48 997.5
20260831082621 74 0 4.0 8.0 0.00 0.00 0.00 48 997.5
20260831082120 74 0 5.0 6.0 0.00 0.00 0.00 48 997.3
20260831081620 74 0 7.0 10.0 0.00 0.00 0.00 48 997.5
20260831081117 74 0 7.0 9.0 0.00 0.00 0.00 48 997.3
20260831080617 74 0 7.0 11.0 0.00 0.00 0.00 48 997.4
20260831080120 74 0 6.0 10.0 0.00 0.00 0.00 48 997.4
20260831075619 73 0 6.0 9.0 0.00 0.00 0.00 48 997.3
20260831075117 73 0 3.0 5.0 0.00 0.00 0.00 48 997.3
20260831074640 73 0 6.0 10.0 0.00 0.00 0.00 48 997.3
20260831074120 73 0 7.0 10.0 0.00 0.00 0.00 48 997.3
20260831073619 73 0 6.0 9.0 0.00 0.00 0.00 48 997.4
20260831073140 73 0 7.0 11.0 0.00 0.00 0.00 49 997.4
20260831072640 73 0 5.0 9.0 0.00 0.00 0.00 49 997.5
20260831072120 73 0 5.0 8.0 0.00 0.00 0.00 49 997.6
20260831071640 73 0 6.0 9.0 0.00 0.00 0.00 49 997.6
20260831071119 73 0 7.0 10.0 0.00 0.00 0.00 49 997.7
20260831070639 73 0 4.0 6.0 0.00 0.00 0.00 49 997.7
20260831070120 73 0 4.0 6.0 0.00 0.00 0.00 49 997.8
20260831065619 73 0 5.0 8.0 0.00 0.00 0.00 49 997.9
20260831065119 73 0 5.0 8.0 0.00 0.00 0.00 49 997.8
20260831064620 73 0 4.0 5.0 0.00 0.00 0.00 49 997.8
20260831064119 73 0 3.0 5.0 0.00 0.00 0.00 49 997.8
20260831063620 73 0 4.0 6.0 0.00 0.00 0.00 49 997.8
20260831063119 73 0 4.0 6.0 0.00 0.00 0.00 49 997.8
20260831062619 73 0 3.0 6.0 0.00 0.00 0.00 49 997.8
20260831062138 73 0 3.0 6.0 0.00 0.00 0.00 49 997.8
20260831061617 73 158 3.0 5.0 0.00 0.00 0.00 49 997.9
20260831061200 73 0 3.0 8.0 0.00 0.00 0.00 49 997.8
20260831060140 73 0 3.0 6.0 0.00 0.00 0.00 49 997.9
20260831055617 73 180 3.0 6.0 0.00 0.00 0.00 49 998.0
20260831055158 73 180 4.0 8.0 0.00 0.00 0.00 49 998.0
20260831054617 73 0 3.0 6.0 0.00 0.00 0.00 49 998.0
20260831054118 73 0 3.0 4.0 0.00 0.00 0.00 49 998.1
20260831053617 73 0 3.0 4.0 0.00 0.00 0.00 49 998.1
20260831053117 73 180 4.0 6.0 0.00 0.00 0.00 49 998.1
20260831052617 73 0 3.0 4.0 0.00 0.00 0.00 49 998.3
20260831052117 73 180 2.0 4.0 0.00 0.00 0.00 49 998.4
20260831051617 73 203 2.0 6.0 0.00 0.00 0.00 49 998.4
20260831051118 73 0 3.0 5.0 0.00 0.00 0.00 49 998.4
20260831050617 73 0 4.0 6.0 0.00 0.00 0.00 49 998.3
20260831050117 73 0 3.0 6.0 0.00 0.00 0.00 49 998.3
20260831045621 73 203 2.0 4.0 0.00 0.00 0.00 49 998.3
20260831045137 72 248 2.0 4.0 0.00 0.00 0.00 49 998.2
20260831044637 72 0 2.0 4.0 0.00 0.00 0.00 50 998.2
20260831044120 72 180 4.0 11.0 0.00 0.00 0.00 49 998.3
20260831043620 72 180 3.0 6.0 0.00 0.00 0.00 49 998.1
20260831043139 72 0 2.0 4.0 0.00 0.00 0.00 49 998.1
20260831042619 72 180 2.0 3.0 0.00 0.00 0.00 49 998.1
20260831042139 72 203 3.0 5.0 0.00 0.00 0.00 49 998.2
20260831041619 72 180 2.0 4.0 0.00 0.00 0.00 50 998.1
20260831041139 72 248 4.0 7.0 0.00 0.00 0.00 50 998.1
20260831040617 72 158 3.0 5.0 0.00 0.00 0.00 50 998.1
20260831040119 72 0 5.0 11.0 0.00 0.00 0.00 50 998.2
20260831035620 72 180 5.0 13.0 0.00 0.00 0.00 50 998.2
20260831035119 72 180 5.0 11.0 0.00 0.00 0.00 50 998.2
20260831034617 72 180 5.0 11.0 0.00 0.00 0.00 50 998.2
20260831034119 72 203 6.0 10.0 0.00 0.00 0.00 50 998.3
20260831033619 72 180 4.0 6.0 0.00 0.00 0.00 50 998.4
20260831033120 72 180 4.0 6.0 0.00 0.00 0.00 50 998.4
20260831032620 72 0 6.0 9.0 0.00 0.00 0.00 50 998.5
20260831032120 72 180 4.0 6.0 0.00 0.00 0.00 50 998.6
20260831031617 72 158 4.0 5.0 0.00 0.00 0.00 50 998.8
20260831031121 72 180 6.0 10.0 0.00 0.00 0.00 50 998.7
20260831030620 72 180 5.0 8.0 0.00 0.00 0.00 50 998.6
20260831030117 72 203 4.0 8.0 0.00 0.00 0.00 50 998.6
20260831025619 72 180 3.0 5.0 0.00 0.00 0.00 50 998.7
20260831025121 73 180 5.0 9.0 0.00 0.00 0.00 50 998.5
20260831024619 73 180 5.0 7.0 0.00 0.00 0.00 50 998.5
20260831024120 73 180 5.0 10.0 0.00 0.00 0.00 50 998.5
20260831023619 73 180 6.0 9.0 0.00 0.00 0.00 50 998.5
20260831023117 73 203 5.0 7.0 0.00 0.00 0.00 50 998.5
20260831022617 73 203 2.0 4.0 0.00 0.00 0.00 50 998.6
20260831022117 72 180 2.0 3.0 0.00 0.00 0.00 50 998.6
20260831021617 73 180 2.0 4.0 0.00 0.00 0.00 51 998.8
20260831021119 73 180 4.0 6.0 0.00 0.00 0.00 51 998.8
20260831020619 73 0 4.0 5.0 0.00 0.00 0.00 51 999.0
20260831020119 73 0 4.0 8.0 0.00 0.00 0.00 51 998.8
20260831015620 73 0 3.0 5.0 0.00 0.00 0.00 51 998.9
20260831015121 73 0 3.0 6.0 0.00 0.00 0.00 51 998.9
20260831014617 73 180 2.0 5.0 0.00 0.00 0.00 52 998.9
20260831014119 73 180 2.0 4.0 0.00 0.00 0.00 52 999.0
20260831013640 73 0.0 0.0 0.00 0.00 0.00 53 999.1
20260831013140 73 0.0 0.0 0.00 0.00 0.00 52 999.2
20260831012617 74 0.0 0.0 0.00 0.00 0.00 52 999.3
20260831012117 74 0.0 0.0 0.00 0.00 0.00 52 999.3
20260831011620 74 0.0 0.0 0.00 0.00 0.00 52 999.3
20260831011141 74 0.0 0.0 0.00 0.00 0.00 52 999.4
20260831010619 74 0.0 0.0 0.00 0.00 0.00 52 999.3
20260831010117 74 0.0 0.0 0.00 0.00 0.00 52 999.4
20260831005616 74 0.0 0.0 0.00 0.00 0.00 52 999.5
20260831005117 74 0.0 0.0 0.00 0.00 0.00 52 999.4
20260831004619 74 0.0 0.0 0.00 0.00 0.00 52 999.4
20260831004116 74 0.0 0.0 0.00 0.00 0.00 52 999.4
20260831003637 74 0.0 0.0 0.00 0.00 0.00 53 999.5
20260831003136 74 0.0 0.0 0.00 0.00 0.00 53 999.5
20260831002617 74 0.0 0.0 0.00 0.00 0.00 53 999.5
20260831002138 74 0.0 0.0 0.00 0.00 0.00 52 999.7
20260831001639 74 0.0 0.0 0.00 0.00 0.00 53 999.6
20260831001116 75 0.0 0.0 0.00 0.00 0.00 53 999.7
20260831000620 75 0.0 0.0 0.00 0.00 0.00 52 999.7
20260831000118 75 0.0 0.0 0.00 0.00 0.00 52 999.6
20260830235619 75 0.0 0.0 0.00 0.00 0.00 52 999.6
20260830235120 75 0 2.0 3.0 0.00 0.00 0.00 52 999.6
20260830234620 75 0.0 3.0 0.00 0.00 0.00 52 999.6
20260830234119 75 0.0 0.0 0.00 0.00 0.00 52 999.6
20260830233620 75 0.0 0.0 0.00 0.00 0.00 52 999.6
20260830233116 76 0.0 0.0 0.00 0.00 0.00 51 999.6
20260830232617 76 0.0 0.0 0.00 0.00 0.00 51 999.6
20260830232121 76 0.0 0.0 0.00 0.00 0.00 51 999.6
20260830231619 76 0.0 0.0 0.00 0.00 0.00 50 999.6
20260830231119 76 0.0 0.0 0.00 0.00 0.00 50 999.6
20260830230639 76 0.0 0.0 0.00 0.00 0.00 50 999.6
20260830230119 76 0.0 0.0 0.00 0.00 0.00 50 999.4
20260830225619 76 0.0 0.0 0.00 0.00 0.00 50 999.5
20260830225118 76 0.0 0.0 0.00 0.00 0.00 49 999.4
20260830224638 76 0.0 0.0 0.00 0.00 0.00 49 999.0
20260830224120 76 0.0 0.0 0.00 0.00 0.00 49 998.8
20260830223616 76 225 1.0 1.0 0.00 0.00 0.00 49 998.6
20260830223119 76 0.0 1.0 0.00 0.00 0.00 49 998.5
20260830222639 76 225 2.0 3.0 0.00 0.00 0.00 49 998.3
20260830222118 76 0 3.0 5.0 0.00 0.00 0.00 49 998.3
20260830221616 76 0 3.0 5.0 0.00 0.00 0.00 49 998.1
20260830221136 76 0 2.0 3.0 0.00 0.00 0.00 50 998.2
20260830220616 76 0 3.0 3.0 0.00 0.00 0.00 50 998.0